Regional Weather Roundup
Issued by NWS

Home | Current Version | Previous Version | Graphics & Text | Print | Product List | Glossary On
Versions: 1 2 3 4 5 6 7 8 9 10 11 12 13 14 15 16 17 18 19 20 21 22 23 24 25 26 27 28 29 30 31 32 33 34 35 36 37 38 39 40 41 42 43 44 45 46 47 48 49 50
000
ASUS43 KOAX 181810
RWRNE

WEATHER ROUNDUP FOR NEBRASKA
NATIONAL WEATHER SERVICE OMAHA NE
1200 PM CST THU JAN 18 2018

NOTES: SATELLITE DATA IS BEING USED TO AUGMENT CLOUD COVER ABOVE
       12000 FEET.
       "FAIR" INDICATES FEW OR NO CLOUDS BELOW 12,000 FEET WITH NO
       SIGNIFICANT WEATHER AND/OR OBSTRUCTIONS TO VISIBILITY.


NEZ001>004-019>022-054>056-181900-
NEBRASKA PANHANDLE

CITY           SKY/WX    TMP DP  RH WIND       PRES   REMARKS
SCOTTSBLUFF    CLOUDY    43  28  55 NW8       30.00F
6HR MIN TEMP:  16; 6HR MAX TEMP:  43;

ALLIANCE       PTSUNNY   40  30  67 SW5       29.98F
6HR MIN TEMP:  14; 6HR MAX TEMP:  40;

CHADRON        CLOUDY    42  29  59 SW5       29.97F
6HR MIN TEMP:  22; 6HR MAX TEMP:  42;

SIDNEY         MOSUNNY   56  20  24 W12       30.04S
6HR MIN TEMP:  20; 6HR MAX TEMP:  57;

$$

NEZ057>060-069>072-079>082-181900-
SOUTHWEST NEBRASKA

CITY           SKY/WX    TMP DP  RH WIND       PRES   REMARKS
NORTH PLATTE   CLOUDY    40  25  55 W9        30.00F WCI  34
6HR MIN TEMP:  13; 6HR MAX TEMP:  40;

IMPERIAL       CLOUDY    44  27  51 W7        30.04F
6HR MIN TEMP:  20; 6HR MAX TEMP:  44;

$$

NEZ005>010-023>029-035>040-094-181900-
NORTH CENTRAL NEBRASKA

CITY           SKY/WX    TMP DP  RH WIND       PRES   REMARKS
VALENTINE      CLOUDY    38  27  64 W12       29.93S WCI  30
6HR MIN TEMP:  20; 6HR MAX TEMP:  38;

BROKEN BOW     CLOUDY    38  27  64 SW8       29.96F WCI  32
6HR MIN TEMP:  13; 6HR MAX TEMP:  38;

ORD            CLOUDY    43  25  49 W8        29.95F
6HR MIN TEMP:   9; 6HR MAX TEMP:  43;

$$

NEZ041-046>049-061>064-073>077-083>087-181900-
SOUTH CENTRAL NEBRASKA

CITY           SKY/WX    TMP DP  RH WIND       PRES   REMARKS
GRAND ISLAND   CLOUDY    37  25  61 SW14      30.00F WCI  28
6HR MIN TEMP:  13; 6HR MAX TEMP:  37;

HASTINGS       CLOUDY    37  25  61 SW8       30.02F WCI  31
6HR MIN TEMP:  13; 6HR MAX TEMP:  37;

$$

NEZ011>018-030>034-042>045-181900-
NORTHEAST NEBRASKA

CITY           SKY/WX    TMP DP  RH WIND       PRES   REMARKS
TEKAMAH        SUNNY     34  19  54 S13       30.03F WCI  25
6HR MIN TEMP:  13; 6HR MAX TEMP:  34;

$$

NEZ050>053-065>068-078-088>093-181900-
SOUTHEAST NEBRASKA

CITY           SKY/WX    TMP DP  RH WIND       PRES   REMARKS
OMAHA EPPLEY   MOSUNNY   32  15  49 S13       30.06F WCI  22
6HR MIN TEMP:  13; 6HR MAX TEMP:  32;

FALLS CITY     SUNNY     32  16  51 W9        30.14F WCI  24
6HR MIN TEMP:  11; 6HR MAX TEMP:  32;

$$

NEZ044-045-051>053-067-181900-
OMAHA AREA

CITY           SKY/WX    TMP DP  RH WIND       PRES   REMARKS
OMAHA EPPLEY   MOSUNNY   32  15  49 S13       30.06F WCI  22
6HR MIN TEMP:  13; 6HR MAX TEMP:  32;

$$




USA.gov is the U.S. government's official web portal to all federal, state and local government web resources and services.